| time (UTC) | temp F | wind direction | speed MPH | gust MPH | rain 1hr in | rain 24hr in | rain mn in | humidity % | barometer mb |
| 20260905123536 | 55 | 0.0 | 0.0 | 0.00 | 0.01 | 0.00 | 74 | 1014.7 | |
| 20260905122516 | 55 | 317 | 0.0 | 1.0 | 0.00 | 0.01 | 0.00 | 75 | 1014.8 |
| 20260905121517 | 54 | 55 | 1.0 | 1.0 | 0.00 | 0.01 | 0.00 | 74 | 1014.8 |
| 20260905120516 | 54 | 86 | 0.0 | 1.0 | 0.00 | 0.01 | 0.00 | 73 | 1014.7 |
| 20260905115516 | 55 | 0.0 | 1.0 | 0.00 | 0.01 | 0.00 | 72 | 1014.6 | |
| 20260905114517 | 55 | 85 | 0.0 | 1.0 | 0.00 | 0.01 | 0.00 | 72 | 1014.6 |
| 20260905113516 | 55 | 76 | 1.0 | 2.0 | 0.00 | 0.01 | 0.00 | 71 | 1014.6 |
| 20260905112516 | 56 | 88 | 2.0 | 4.0 | 0.00 | 0.01 | 0.00 | 70 | 1014.7 |
| 20260905111536 | 57 | 90 | 1.0 | 2.0 | 0.00 | 0.01 | 0.00 | 67 | 1014.7 |
| 20260905110517 | 58 | 38 | 1.0 | 2.0 | 0.00 | 0.01 | 0.00 | 66 | 1014.7 |
| 20260905105516 | 58 | 352 | 0.0 | 1.0 | 0.00 | 0.01 | 0.00 | 66 | 1014.8 |
| 20260905104516 | 58 | 82 | 1.0 | 2.0 | 0.00 | 0.01 | 0.00 | 65 | 1014.6 |
| 20260905103516 | 58 | 88 | 2.0 | 3.0 | 0.00 | 0.01 | 0.00 | 64 | 1014.6 |
| 20260905102536 | 59 | 20 | 2.0 | 3.0 | 0.00 | 0.01 | 0.00 | 62 | 1014.8 |
| 20260905101536 | 59 | 3 | 2.0 | 5.0 | 0.00 | 0.01 | 0.00 | 62 | 1014.7 |
| 20260905100516 | 58 | 3 | 3.0 | 6.0 | 0.00 | 0.01 | 0.00 | 64 | 1014.7 |
| 20260905095516 | 58 | 357 | 2.0 | 4.0 | 0.00 | 0.01 | 0.00 | 65 | 1014.8 |
| 20260905094536 | 57 | 2 | 4.0 | 8.0 | 0.00 | 0.01 | 0.00 | 67 | 1014.9 |
| 20260905093516 | 56 | 328 | 1.0 | 2.0 | 0.00 | 0.01 | 0.00 | 69 | 1015.0 |
| 20260905092556 | 55 | 340 | 1.0 | 2.0 | 0.00 | 0.01 | 0.00 | 74 | 1015.0 |
| 20260905091536 | 55 | 0.0 | 1.0 | 0.00 | 0.01 | 0.00 | 78 | 1015.0 | |
| 20260905090516 | 55 | 0.0 | 0.0 | 0.00 | 0.01 | 0.00 | 79 | 1015.1 | |
| 20260905085516 | 55 | 79 | 0.0 | 1.0 | 0.00 | 0.01 | 0.00 | 79 | 1015.2 |
| 20260905084536 | 56 | 79 | 0.0 | 1.0 | 0.00 | 0.01 | 0.00 | 80 | 1015.4 |
| 20260905083536 | 56 | 0.0 | 0.0 | 0.00 | 0.01 | 0.00 | 79 | 1015.4 | |
| 20260905082516 | 56 | 0.0 | 0.0 | 0.00 | 0.01 | 0.00 | 79 | 1015.4 | |
| 20260905081516 | 56 | 0.0 | 0.0 | 0.00 | 0.01 | 0.00 | 78 | 1015.4 | |
| 20260905080516 | 56 | 0.0 | 0.0 | 0.00 | 0.01 | 0.00 | 78 | 1015.4 | |
| 20260905075536 | 57 | 42 | 0.0 | 1.0 | 0.00 | 0.01 | 0.00 | 77 | 1015.4 |
| 20260905074516 | 57 | 0.0 | 0.0 | 0.00 | 0.02 | 0.00 | 77 | 1015.4 | |
| 20260905073516 | 57 | 0.0 | 1.0 | 0.00 | 0.03 | 0.00 | 76 | 1015.4 | |
| 20260905072516 | 57 | 5 | 2.0 | 3.0 | 0.00 | 0.03 | 0.00 | 75 | 1015.4 |
| 20260905071516 | 57 | 0.0 | 0.0 | 0.00 | 0.04 | 0.00 | 74 | 1015.4 | |
| 20260905070516 | 58 | 14 | 1.0 | 2.0 | 0.00 | 0.04 | 0.00 | 72 | 1015.3 |
| 20260905065516 | 58 | 0.0 | 0.0 | 0.00 | 0.05 | 0.05 | 71 | 1015.3 | |
| 20260905064516 | 59 | 0.0 | 0.0 | 0.00 | 0.06 | 0.05 | 69 | 1015.2 | |
| 20260905063516 | 60 | 0.0 | 0.0 | 0.00 | 0.06 | 0.05 | 67 | 1015.2 | |
| 20260905062516 | 60 | 0.0 | 0.0 | 0.00 | 0.06 | 0.05 | 66 | 1015.1 | |
| 20260905061516 | 61 | 83 | 0.0 | 1.0 | 0.00 | 0.06 | 0.05 | 65 | 1015.2 |
| 20260905060516 | 62 | 292 | 0.0 | 2.0 | 0.00 | 0.06 | 0.05 | 64 | 1015.2 |
| 20260905055516 | 62 | 315 | 1.0 | 2.0 | 0.00 | 0.06 | 0.05 | 62 | 1015.3 |
| 20260905054556 | 62 | 323 | 3.0 | 5.0 | 0.00 | 0.06 | 0.05 | 62 | 1015.2 |
| 20260905053516 | 63 | 14 | 1.0 | 3.0 | 0.00 | 0.06 | 0.05 | 62 | 1015.1 |
| 20260905052616 | 63 | 313 | 2.0 | 4.0 | 0.00 | 0.06 | 0.05 | 60 | 1015.1 |
| 20260905051536 | 63 | 326 | 1.0 | 3.0 | 0.00 | 0.06 | 0.05 | 60 | 1015.1 |
| 20260905050516 | 64 | 268 | 1.0 | 3.0 | 0.00 | 0.06 | 0.05 | 58 | 1015.1 |
| 20260905045516 | 64 | 282 | 2.0 | 3.0 | 0.00 | 0.06 | 0.05 | 58 | 1015.0 |
| 20260905044536 | 65 | 119 | 1.0 | 2.0 | 0.00 | 0.06 | 0.05 | 56 | 1015.0 |
| 20260905043536 | 65 | 312 | 5.0 | 10.0 | 0.00 | 0.06 | 0.05 | 56 | 1014.9 |
| 20260905042516 | 65 | 329 | 4.0 | 8.0 | 0.00 | 0.06 | 0.05 | 56 | 1014.8 |
| 20260905041516 | 66 | 319 | 5.0 | 10.0 | 0.00 | 0.06 | 0.05 | 55 | 1014.6 |
| 20260905040516 | 66 | 311 | 4.0 | 10.0 | 0.00 | 0.06 | 0.05 | 54 | 1014.5 |
| 20260905035516 | 67 | 319 | 4.0 | 8.0 | 0.00 | 0.06 | 0.05 | 53 | 1014.4 |
| 20260905034516 | 68 | 327 | 4.0 | 9.0 | 0.00 | 0.06 | 0.05 | 51 | 1014.4 |
| 20260905033535 | 68 | 325 | 4.0 | 9.0 | 0.00 | 0.06 | 0.05 | 49 | 1014.3 |
| 20260905032516 | 69 | 343 | 2.0 | 5.0 | 0.00 | 0.06 | 0.05 | 47 | 1014.1 |
| 20260905031515 | 69 | 324 | 2.0 | 8.0 | 0.00 | 0.06 | 0.05 | 46 | 1014.1 |
| 20260905030516 | 70 | 319 | 1.0 | 4.0 | 0.00 | 0.06 | 0.05 | 47 | 1013.9 |
| 20260905025515 | 71 | 346 | 1.0 | 4.0 | 0.00 | 0.06 | 0.05 | 46 | 1014.0 |
| 20260905024516 | 71 | 355 | 2.0 | 3.0 | 0.00 | 0.06 | 0.05 | 46 | 1013.9 |
| 20260905023516 | 72 | 329 | 3.0 | 5.0 | 0.00 | 0.06 | 0.05 | 46 | 1014.0 |
| 20260905022515 | 73 | 313 | 3.0 | 5.0 | 0.00 | 0.06 | 0.05 | 45 | 1014.0 |
| 20260905021516 | 75 | 327 | 2.0 | 8.0 | 0.00 | 0.06 | 0.05 | 43 | 1014.0 |
| 20260905020516 | 76 | 328 | 1.0 | 3.0 | 0.00 | 0.06 | 0.05 | 44 | 1013.9 |
| 20260905015515 | 76 | 330 | 1.0 | 2.0 | 0.00 | 0.06 | 0.05 | 44 | 1013.8 |
| 20260905014515 | 76 | 352 | 3.0 | 8.0 | 0.00 | 0.06 | 0.05 | 43 | 1013.7 |
| 20260905013515 | 77 | 8 | 2.0 | 4.0 | 0.00 | 0.06 | 0.05 | 43 | 1013.8 |
| 20260905012535 | 77 | 341 | 2.0 | 9.0 | 0.00 | 0.06 | 0.05 | 42 | 1013.8 |
| 20260905011515 | 77 | 302 | 4.0 | 8.0 | 0.00 | 0.06 | 0.05 | 42 | 1013.8 |
| 20260905010516 | 78 | 13 | 5.0 | 8.0 | 0.00 | 0.06 | 0.05 | 41 | 1013.7 |
| 20260905005536 | 77 | 320 | 3.0 | 6.0 | 0.00 | 0.06 | 0.05 | 42 | 1013.7 |
| 20260905004515 | 78 | 255 | 7.0 | 14.0 | 0.00 | 0.06 | 0.05 | 43 | 1013.6 |
| 20260905003515 | 78 | 285 | 9.0 | 13.0 | 0.00 | 0.06 | 0.05 | 44 | 1013.5 |
| 20260905002515 | 78 | 292 | 7.0 | 9.0 | 0.00 | 0.06 | 0.05 | 43 | 1013.6 |
| 20260905001515 | 78 | 267 | 3.0 | 10.0 | 0.00 | 0.06 | 0.05 | 44 | 1013.5 |
| 20260905000515 | 78 | 256 | 6.0 | 12.0 | 0.00 | 0.06 | 0.05 | 45 | 1013.5 |
| 20260904235516 | 78 | 222 | 5.0 | 11.0 | 0.00 | 0.06 | 0.05 | 45 | 1013.3 |
| 20260904234516 | 77 | 209 | 6.0 | 10.0 | 0.00 | 0.06 | 0.05 | 46 | 1013.3 |
| 20260904233516 | 77 | 244 | 7.0 | 10.0 | 0.00 | 0.06 | 0.05 | 46 | 1013.5 |
| 20260904232535 | 77 | 222 | 8.0 | 14.0 | 0.00 | 0.06 | 0.05 | 47 | 1013.5 |
| 20260904231515 | 77 | 185 | 5.0 | 10.0 | 0.00 | 0.06 | 0.05 | 47 | 1013.5 |
| 20260904230516 | 77 | 215 | 5.0 | 11.0 | 0.00 | 0.06 | 0.05 | 46 | 1013.7 |
| 20260904225515 | 76 | 210 | 5.0 | 9.0 | 0.00 | 0.06 | 0.05 | 47 | 1013.9 |
| 20260904224516 | 75 | 205 | 6.0 | 9.0 | 0.00 | 0.06 | 0.05 | 49 | 1013.9 |
| 20260904223535 | 75 | 193 | 6.0 | 10.0 | 0.00 | 0.06 | 0.05 | 50 | 1014.1 |
| 20260904222515 | 75 | 188 | 3.0 | 7.0 | 0.00 | 0.06 | 0.05 | 51 | 1014.2 |
| 20260904221515 | 75 | 214 | 3.0 | 7.0 | 0.00 | 0.06 | 0.05 | 51 | 1014.4 |
| 20260904220515 | 75 | 215 | 4.0 | 11.0 | 0.00 | 0.06 | 0.05 | 51 | 1014.5 |
| 20260904215515 | 74 | 161 | 5.0 | 9.0 | 0.00 | 0.06 | 0.05 | 52 | 1014.5 |
| 20260904214535 | 73 | 181 | 5.0 | 9.0 | 0.00 | 0.06 | 0.05 | 52 | 1014.6 |
| 20260904213515 | 73 | 218 | 7.0 | 9.0 | 0.00 | 0.06 | 0.05 | 53 | 1014.6 |
| 20260904212515 | 73 | 209 | 5.0 | 8.0 | 0.00 | 0.06 | 0.05 | 55 | 1014.6 |
| 20260904211535 | 72 | 181 | 3.0 | 10.0 | 0.00 | 0.06 | 0.05 | 58 | 1014.7 |
| 20260904210515 | 71 | 207 | 3.0 | 9.0 | 0.00 | 0.06 | 0.05 | 60 | 1014.7 |
| 20260904205515 | 71 | 146 | 3.0 | 9.0 | 0.00 | 0.06 | 0.05 | 62 | 1014.8 |
| 20260904204515 | 70 | 195 | 4.0 | 10.0 | 0.00 | 0.06 | 0.05 | 65 | 1014.9 |
| 20260904203515 | 70 | 193 | 5.0 | 9.0 | 0.00 | 0.06 | 0.05 | 66 | 1015.0 |
| 20260904202515 | 71 | 222 | 3.0 | 9.0 | 0.00 | 0.06 | 0.05 | 67 | 1014.8 |
| 20260904201515 | 70 | 149 | 6.0 | 11.0 | 0.00 | 0.06 | 0.05 | 70 | 1014.8 |
| 20260904200555 | 69 | 189 | 7.0 | 11.0 | 0.00 | 0.06 | 0.05 | 71 | 1014.8 |
| 20260904195535 | 69 | 195 | 8.0 | 11.0 | 0.00 | 0.06 | 0.05 | 71 | 1014.8 |
| 20260904194515 | 70 | 136 | 4.0 | 7.0 | 0.00 | 0.06 | 0.05 | 70 | 1014.9 |
| 20260904193555 | 69 | 208 | 4.0 | 8.0 | 0.00 | 0.06 | 0.05 | 72 | 1015.0 |
| 20260904192515 | 69 | 150 | 5.0 | 7.0 | 0.00 | 0.06 | 0.05 | 72 | 1015.0 |
| 20260904191555 | 70 | 221 | 4.0 | 9.0 | 0.00 | 0.06 | 0.05 | 72 | 1015.0 |
| 20260904190515 | 70 | 198 | 4.0 | 6.0 | 0.00 | 0.06 | 0.05 | 72 | 1015.0 |
| 20260904185515 | 69 | 201 | 4.0 | 8.0 | 0.00 | 0.06 | 0.05 | 68 | 1015.2 |
| 20260904184535 | 69 | 192 | 2.0 | 4.0 | 0.00 | 0.06 | 0.05 | 69 | 1015.2 |
| 20260904183515 | 68 | 228 | 3.0 | 4.0 | 0.00 | 0.06 | 0.05 | 73 | 1015.3 |
| 20260904182515 | 67 | 246 | 3.0 | 6.0 | 0.00 | 0.06 | 0.05 | 74 | 1015.4 |
| 20260904181515 | 67 | 216 | 2.0 | 4.0 | 0.00 | 0.06 | 0.05 | 77 | 1015.4 |
| 20260904180535 | 66 | 207 | 2.0 | 3.0 | 0.00 | 0.06 | 0.05 | 83 | 1015.5 |
| 20260904175515 | 65 | 134 | 1.0 | 5.0 | 0.00 | 0.06 | 0.05 | 84 | 1015.5 |
| 20260904174515 | 64 | 199 | 2.0 | 4.0 | 0.00 | 0.06 | 0.05 | 86 | 1015.5 |
| 20260904173515 | 63 | 214 | 1.0 | 3.0 | 0.00 | 0.06 | 0.05 | 88 | 1015.5 |
| 20260904172535 | 63 | 127 | 1.0 | 3.0 | 0.00 | 0.06 | 0.05 | 90 | 1015.5 |
| 20260904171515 | 63 | 152 | 2.0 | 4.0 | 0.00 | 0.06 | 0.05 | 90 | 1015.4 |
| 20260904170515 | 62 | 160 | 3.0 | 4.0 | 0.00 | 0.06 | 0.05 | 91 | 1015.4 |
| 20260904165515 | 62 | 147 | 1.0 | 2.0 | 0.00 | 0.06 | 0.05 | 91 | 1015.5 |
| 20260904164515 | 62 | 129 | 2.0 | 3.0 | 0.00 | 0.06 | 0.05 | 91 | 1015.4 |
| 20260904163515 | 62 | 107 | 1.0 | 3.0 | 0.00 | 0.06 | 0.05 | 91 | 1015.3 |
| 20260904162516 | 62 | 162 | 2.0 | 4.0 | 0.00 | 0.06 | 0.05 | 92 | 1015.1 |
| 20260904161518 | 62 | 137 | 2.0 | 4.0 | 0.00 | 0.06 | 0.05 | 92 | 1015.0 |
| 20260904160517 | 62 | 94 | 1.0 | 3.0 | 0.00 | 0.06 | 0.05 | 92 | 1014.8 |
| 20260904155516 | 62 | 84 | 1.0 | 2.0 | 0.00 | 0.06 | 0.05 | 93 | 1014.8 |
| 20260904154517 | 61 | 93 | 1.0 | 2.0 | 0.00 | 0.06 | 0.05 | 93 | 1014.8 |
| 20260904153517 | 61 | 81 | 0.0 | 2.0 | 0.00 | 0.06 | 0.05 | 93 | 1014.7 |
| 20260904152517 | 60 | 90 | 1.0 | 2.0 | 0.00 | 0.06 | 0.05 | 93 | 1014.7 |
| 20260904151515 | 59 | 0.0 | 0.0 | 0.00 | 0.06 | 0.05 | 93 | 1014.7 | |
| 20260904150517 | 58 | 0.0 | 1.0 | 0.00 | 0.06 | 0.05 | 93 | 1014.7 | |
| 20260904145517 | 58 | 33 | 0.0 | 2.0 | 0.00 | 0.06 | 0.05 | 93 | 1014.6 |
| 20260904144516 | 57 | 36 | 0.0 | 2.0 | 0.01 | 0.06 | 0.05 | 93 | 1014.4 |
| 20260904143517 | 57 | 64 | 0.0 | 1.0 | 0.01 | 0.06 | 0.05 | 93 | 1014.2 |
| 20260904142517 | 57 | 316 | 1.0 | 1.0 | 0.01 | 0.06 | 0.05 | 92 | 1014.1 |
| 20260904141517 | 57 | 306 | 1.0 | 3.0 | 0.01 | 0.06 | 0.05 | 92 | 1013.9 |
| 20260904140516 | 57 | 287 | 1.0 | 3.0 | 0.01 | 0.06 | 0.05 | 92 | 1013.7 |
| 20260904135537 | 57 | 318 | 1.0 | 2.0 | 0.01 | 0.06 | 0.05 | 92 | 1013.6 |
| 20260904134537 | 57 | 79 | 0.0 | 1.0 | 0.00 | 0.05 | 0.04 | 92 | 1013.6 |
| 20260904133537 | 57 | 14 | 1.0 | 2.0 | 0.00 | 0.05 | 0.04 | 92 | 1013.5 |
| 20260904132516 | 57 | 26 | 1.0 | 2.0 | 0.00 | 0.05 | 0.04 | 92 | 1013.5 |
| 20260904131517 | 57 | 7 | 1.0 | 3.0 | 0.00 | 0.05 | 0.04 | 92 | 1013.6 |
| 20260904130537 | 58 | 315 | 1.0 | 1.0 | 0.00 | 0.05 | 0.04 | 92 | 1013.5 |
| 20260904125517 | 58 | 317 | 2.0 | 2.0 | 0.00 | 0.05 | 0.04 | 92 | 1013.5 |
| 20260904124516 | 58 | 325 | 1.0 | 3.0 | 0.00 | 0.05 | 0.04 | 92 | 1013.4 |